EW0036 Weather Reports


Display with metric or nautical units.
time (UTC)temp
F
wind
direction
speed
MPH
gust
MPH
rain 1hr
in
rain 24hr
in
rain mn
in
humidity
%
barometer
mb
20181118032253 22 239 0.0 2.0 0.00 0.00 0.00 90 1029.5
20181118031252 21 63 0.0 1.0 0.00 0.00 0.00 91 1029.5
20181118030251 20 59 1.0 1.0 0.00 0.00 0.00 91 1029.5
20181118025250 20 74 0.0 0.0 0.00 0.00 0.00 90 1029.8
20181118024249 20 74 0.0 0.0 0.00 0.00 0.00 91 1029.8
20181118023249 20 74 0.0 0.0 0.00 0.00 0.00 91 1030.1
20181118022248 20 74 0.0 0.0 0.00 0.00 0.00 90 1030.1
20181118021247 20 74 0.0 0.0 0.00 0.00 0.00 90 1030.5
20181118020246 20 74 0.0 1.0 0.00 0.00 0.00 90 1030.8
20181118015245 20 74 0.0 1.0 0.00 0.00 0.00 89 1030.8
20181118014243 20 74 0.0 0.0 0.00 0.00 0.00 89 1031.2
20181118013242 20 74 0.0 0.0 0.00 0.00 0.00 90 1031.2
20181118012241 20 74 0.0 0.0 0.00 0.00 0.00 88 1031.2
20181118011240 20 74 0.0 0.0 0.00 0.00 0.00 88 1031.5
20181118010239 20 74 0.0 0.0 0.00 0.00 0.00 87 1031.8
20181118005238 20 74 0.0 0.0 0.00 0.00 0.00 87 1031.8
20181118004237 20 74 0.0 0.0 0.00 0.00 0.00 87 1031.8
20181118003236 20 74 0.0 0.0 0.00 0.00 0.00 86 1031.8
20181118002235 21 74 0.0 0.0 0.00 0.00 0.00 86 1032.2
20181118001234 21 74 0.0 0.0 0.00 0.00 0.00 86 1032.2
20181118000232 21 74 0.0 0.0 0.00 0.00 0.00 86 1032.2
20181117235231 21 74 0.0 0.0 0.00 0.00 0.00 85 1032.2
20181117234230 21 74 0.0 0.0 0.00 0.00 0.00 85 1032.2
20181117233229 21 74 0.0 0.0 0.00 0.00 0.00 85 1032.2
20181117232228 22 74 0.0 0.0 0.00 0.00 0.00 84 1032.2
20181117231227 22 74 0.0 0.0 0.00 0.00 0.00 85 1032.5
20181117230225 22 74 0.0 0.0 0.00 0.00 0.00 84 1032.5
20181117225224 22 74 0.0 0.0 0.00 0.00 0.00 85 1032.8
20181117224223 22 74 0.0 0.0 0.00 0.00 0.00 83 1032.8
20181117223222 22 74 0.0 0.0 0.00 0.00 0.00 83 1033.2
20181117222221 22 74 0.0 0.0 0.00 0.00 0.00 82 1033.2
20181117221220 23 74 0.0 0.0 0.00 0.00 0.00 81 1033.5
20181117220218 23 74 0.0 0.0 0.00 0.00 0.00 82 1033.5
20181117215217 23 74 0.0 1.0 0.00 0.00 0.00 82 1033.9
20181117214216 23 56 0.0 1.0 0.00 0.00 0.00 83 1034.2
20181117213215 22 56 1.0 1.0 0.00 0.00 0.00 84 1034.5
20181117212214 23 318 0.0 0.0 0.00 0.00 0.00 83 1034.5
20181117211213 23 317 0.0 0.0 0.00 0.00 0.00 84 1034.5
20181117210212 23 317 0.0 0.0 0.00 0.00 0.00 83 1034.5
20181117205210 23 317 0.0 0.0 0.00 0.00 0.00 83 1034.5
20181117204209 23 317 0.0 0.0 0.00 0.00 0.00 83 1034.5
20181117203208 23 318 0.0 1.0 0.00 0.00 0.00 82 1034.5
20181117202206 23 318 0.0 1.0 0.00 0.00 0.00 82 1034.5
20181117201205 23 319 0.0 0.0 0.00 0.00 0.00 80 1034.5
20181117200205 24 319 0.0 0.0 0.00 0.00 0.00 79 1034.9
20181117195203 23 319 0.0 0.0 0.00 0.00 0.00 79 1034.9
20181117194202 23 319 0.0 0.0 0.00 0.00 0.00 79 1034.9
20181117193200 23 319 0.0 0.0 0.00 0.00 0.00 78 1034.9
20181117192159 23 319 0.0 0.0 0.00 0.00 0.00 78 1034.9
20181117191158 23 319 0.0 0.0 0.00 0.00 0.00 79 1034.9
20181117190157 24 319 0.0 0.0 0.00 0.00 0.00 78 1034.9
20181117185156 24 319 0.0 0.0 0.00 0.00 0.00 77 1035.2
20181117184155 24 319 0.0 0.0 0.00 0.00 0.00 78 1035.2
20181117183153 24 319 0.0 0.0 0.00 0.00 0.00 77 1035.2
20181117182153 24 319 0.0 0.0 0.00 0.00 0.00 78 1035.2
20181117181151 24 319 0.0 0.0 0.00 0.00 0.00 78 1035.6
20181117180150 24 319 0.0 0.0 0.00 0.00 0.00 79 1035.6
20181117175149 24 319 0.0 0.0 0.00 0.00 0.00 80 1035.6
20181117174148 24 319 0.0 0.0 0.00 0.00 0.00 79 1035.6
20181117173146 24 319 0.0 0.0 0.00 0.00 0.00 79 1035.6
20181117172145 25 319 0.0 0.0 0.00 0.00 0.00 78 1035.6
20181117171144 25 319 0.0 0.0 0.00 0.00 0.00 78 1035.9
20181117170143 25 319 0.0 0.0 0.00 0.00 0.00 76 1035.9
20181117165142 26 319 0.0 1.0 0.00 0.00 0.00 76 1036.2
20181117164141 26 319 0.0 1.0 0.00 0.00 0.00 76 1035.9
20181117163140 26 319 0.0 1.0 0.00 0.00 0.00 76 1035.9
20181117162140 26 319 0.0 1.0 0.00 0.00 0.00 76 1035.9
20181117161138 26 314 0.0 0.0 0.00 0.00 0.00 73 1035.9
20181117160137 27 314 0.0 1.0 0.00 0.00 0.00 72 1036.2
20181117155136 27 314 0.0 1.0 0.00 0.00 0.00 71 1036.2
20181117154135 28 314 0.0 1.0 0.00 0.00 0.00 69 1036.2
20181117153134 28 36 1.0 1.0 0.00 0.00 0.00 70 1036.2
20181117152133 28 27 1.0 1.0 0.00 0.00 0.00 69 1036.2
20181117151131 28 12 1.0 1.0 0.00 0.00 0.00 68 1036.2
20181117150130 28 66 1.0 1.0 0.00 0.00 0.00 69 1036.2
20181117145100 28 19 1.0 2.0 0.00 0.00 0.00 69 1036.2
20181117144100 27 67 1.0 2.0 0.00 0.00 0.00 71 1036.2
20181117143059 27 342 1.0 1.0 0.00 0.00 0.00 71 1036.2
20181117142058 28 295 0.0 1.0 0.00 0.00 0.00 69 1036.2
20181117141057 28 295 0.0 1.0 0.00 0.00 0.00 68 1036.2
20181117140055 29 295 0.0 1.0 0.00 0.00 0.00 67 1036.6
20181117135054 29 356 1.0 1.0 0.00 0.00 0.00 65 1036.6
20181117134053 30 356 0.0 2.0 0.00 0.00 0.00 64 1036.9
20181117133052 30 77 0.0 3.0 0.00 0.00 0.00 64 1036.9
20181117132050 30 25 0.0 2.0 0.00 0.00 0.00 64 1036.9
20181117131049 30 340 1.0 2.0 0.00 0.00 0.00 63 1036.9
20181117130049 30 231 1.0 2.0 0.00 0.00 0.00 63 1036.9
20181117125048 29 354 0.0 2.0 0.00 0.00 0.00 63 1036.9
20181117124046 29 319 1.0 2.0 0.00 0.00 0.00 63 1036.9
20181117123045 29 238 1.0 2.0 0.00 0.00 0.00 63 1036.9
20181117122044 29 338 1.0 3.0 0.00 0.00 0.00 63 1036.9
20181117121043 29 325 1.0 3.0 0.00 0.01 0.00 64 1037.3
20181117120042 29 347 1.0 3.0 0.00 0.01 0.00 63 1037.3
20181117115041 30 30 1.0 3.0 0.00 0.01 0.00 63 1037.3
20181117114040 30 35 1.0 3.0 0.00 0.01 0.00 63 1037.3
20181117113038 30 359 1.0 2.0 0.00 0.01 0.00 63 1037.3
20181117112037 30 353 1.0 3.0 0.00 0.01 0.00 62 1037.6
20181117111036 29 51 1.0 4.0 0.00 0.01 0.00 63 1037.6
20181117110035 29 329 1.0 4.0 0.00 0.01 0.00 62 1037.6
20181117105033 29 338 1.0 3.0 0.00 0.01 0.00 62 1037.6
20181117104032 30 31 2.0 3.0 0.00 0.01 0.00 63 1037.6
20181117103031 29 353 0.0 3.0 0.00 0.01 0.00 64 1037.6
20181117102029 29 298 2.0 4.0 0.00 0.01 0.00 63 1037.9
20181117101028 29 317 1.0 3.0 0.00 0.01 0.00 63 1037.6
20181117100027 29 332 1.0 4.0 0.00 0.01 0.00 63 1037.6
20181117095026 28 14 1.0 2.0 0.00 0.01 0.00 65 1037.9
20181117094025 28 353 1.0 3.0 0.00 0.01 0.00 65 1037.9
20181117093024 28 123 1.0 3.0 0.00 0.01 0.00 65 1038.3
20181117092023 28 93 1.0 3.0 0.00 0.01 0.00 66 1038.3
20181117091022 27 5 2.0 4.0 0.00 0.01 0.00 65 1038.3
20181117090021 27 212 1.0 3.0 0.00 0.01 0.00 65 1038.3
20181117085020 27 352 1.0 3.0 0.00 0.01 0.00 65 1038.3
20181117084019 27 30 1.0 3.0 0.00 0.01 0.00 65 1038.3
20181117083018 26 9 1.0 3.0 0.00 0.01 0.00 66 1038.6
20181117082017 26 345 1.0 3.0 0.00 0.01 0.00 66 1038.6
20181117081016 25 350 2.0 3.0 0.00 0.01 0.00 67 1038.6
20181117080014 25 33 1.0 3.0 0.00 0.01 0.00 66 1038.6
20181117075013 25 352 1.0 4.0 0.00 0.01 0.00 68 1038.3
20181117074012 25 4 2.0 5.0 0.00 0.01 0.00 67 1038.6
20181117073010 25 33 1.0 3.0 0.00 0.01 0.00 66 1038.3
20181117072009 25 95 1.0 3.0 0.00 0.01 0.00 66 1038.3
20181117071009 25 298 1.0 2.0 0.00 0.01 0.00 67 1038.3
20181117070007 25 2 1.0 4.0 0.00 0.01 0.00 68 1038.3
20181117065001 25 13 1.0 5.0 0.00 0.01 0.00 67 1038.3
20181117064000 24 42 1.0 4.0 0.00 0.01 0.00 68 1038.3
20181117062959 24 359 2.0 4.0 0.00 0.01 0.00 67 1038.3
20181117061958 24 334 1.0 2.0 0.00 0.01 0.00 68 1038.3
20181117060957 24 331 1.0 3.0 0.00 0.01 0.00 67 1038.3
20181117055956 24 2 1.0 3.0 0.00 0.01 0.00 67 1038.3
20181117054955 24 20 1.0 3.0 0.00 0.01 0.00 67 1038.3
20181117053953 24 350 1.0 3.0 0.00 0.01 0.00 67 1038.3
20181117052952 24 1 2.0 3.0 0.00 0.01 0.00 68 1038.3
20181117051950 24 355 1.0 2.0 0.00 0.01 0.00 67 1038.3
20181117050950 23 20 1.0 2.0 0.00 0.01 0.00 66 1037.9
20181117045948 24 338 1.0 2.0 0.00 0.01 0.00 67 1038.3
20181117044947 24 340 1.0 2.0 0.00 0.01 0.00 67 1038.3
20181117043946 24 2 1.0 2.0 0.00 0.01 0.00 66 1038.3
20181117042945 24 7 1.0 4.0 0.00 0.01 0.00 65 1038.3
20181117041943 24 19 1.0 3.0 0.00 0.01 0.00 64 1038.3
20181117040942 24 5 1.0 4.0 0.00 0.01 0.00 63 1038.3
20181117035941 24 346 1.0 5.0 0.00 0.01 0.00 64 1038.3
20181117034939 24 25 1.0 4.0 0.00 0.01 0.00 65 1038.6
20181117033938 24 2 2.0 3.0 0.00 0.01 0.00 66 1038.6
20181117032938 24 342 0.0 3.0 0.00 0.01 0.00 65 1038.6